User: anonymous   Login
Location: Caltech
(34.1382°N, 118.1253°W)
Time: 04:07:47
(UTC-07:00)
Language:

Cosmos 2322 - Orbit

View from above orbital plane
View from above orbital plane
View from above satellite
View from above satellite

Ground track
Ground track

The orbit data is extracted from the following two-line orbital elements,

1 23704U 95058A   16204.50906366  .00000293  00000-0  18138-3 0  9999
2 23704  70.9861  14.7764 0010840 237.3789 122.6287 14.13356656 69250
Epoch (UTC): 22 July 2016 12:13:03
Eccentricity: 0.0010840
inclination: 70.9861°
perigee height: 840 km
apogee height: 856 km
right ascension of ascending node: 14.7764°
argument of perigee: 237.3789°
revolutions per day: 14.13356656
mean anomaly at epoch: 122.6287°
orbit number at epoch: 6925

The dashed part of the orbit path shows where the satellite is in the earth's shadow,  

DLR